Lapse_Rate
5.4 5.1 6.4 6.3 6.2 6.1 5.7 5.7 5.8 6.4 6.7 6.8 6.8 6.8 6.9 7.3 7.5 7.6 7.4 7.9 8.2 8.5 8.5 8.5 8.6 8.7 8.5 8.1 7.6 7.3 7.1 7.2 7.4 7.3 7.0 7.5 7.8 8.0 8.3 8.2 8.1 7.9 7.5 7.2
5.2 5.6 6.8 6.1 6.1 6.0 6.1 6.1 6.4 6.5 6.7 6.8 6.8 6.6 7.1 7.4 7.3 7.6 7.9 8.2 8.8 8.4 8.7 8.8 8.7 8.5 8.4 8.1 7.6 7.3 7.2 7.2 7.5 7.3 7.2 7.6 8.0 8.1 8.2 8.2 8.4 7.9 7.4 7.3
5.4 6.8 6.4 6.0 6.3 6.5 6.8 6.8 6.7 6.6 6.8 6.7 7.0 6.9 7.2 7.3 7.5 7.4 7.7 8.3 8.3 8.6 8.8 9.3 9.0 8.6 8.2 8.0 7.9 7.5 7.2 7.2 7.6 7.5 7.2 7.8 7.7 8.2 8.2 8.6 8.5 7.8 7.5 7.3
5.7 6.4 6.3 6.5 6.5 6.9 6.8 7.0 7.0 7.0 7.0 6.5 6.5 6.8 6.9 7.2 7.1 7.0 7.7 7.7 7.9 8.2 8.9 9.1 8.7 8.5 8.2 8.0 7.8 7.7 7.4 7.5 7.6 7.6 7.4 8.2 8.4 8.7 8.8 8.7 8.3 7.9 7.6 7.4
6.6 6.8 6.8 7.0 7.1 6.9 6.9 7.2 7.3 7.1 7.1 6.9 6.6 7.5 6.7 7.1 6.6 7.1 6.5 7.0 7.3 8.5 8.9 9.3 8.6 8.3 8.3 8.2 7.9 7.8 7.6 7.7 8.1 7.8 7.6 8.4 8.7 8.8 8.7 8.6 8.5 8.0 7.6 7.6
7.2 7.0 6.9 7.4 7.3 7.3 7.3 7.3 7.3 7.1 7.2 6.4 7.2 7.3 6.4 7.2 6.9 7.3 6.6 6.7 7.6 7.6 8.1 8.8 8.4 8.2 8.1 8.1 7.9 7.9 8.0 7.9 8.1 7.8 8.1 8.6 8.9 8.9 8.8 8.7 8.5 7.9 7.7 7.7
6.9 7.1 7.1 7.3 7.1 7.4 7.3 7.4 6.5 6.3 6.3 6.1 7.8 7.2 7.1 7.4 7.3 6.3 6.4 5.9 6.6 6.9 7.2 8.3 8.1 8.1 7.9 8.0 8.1 8.0 7.9 8.0 8.2 8.1 8.3 8.7 8.8 8.8 8.6 8.6 8.3 7.9 7.8 7.5
6.6 7.0 7.5 7.8 7.3 7.6 7.9 7.8 7.4 6.9 6.8 7.2 7.4 7.1 7.6 7.0 6.7 6.7 5.9 5.6 6.2 6.2 7.0 7.9 7.9 8.4 7.8 7.9 8.1 8.0 7.1 7.7 8.1 8.1 8.0 8.4 8.6 8.8 8.6 8.6 8.3 7.8 7.7 7.6
6.3 6.6 7.2 7.7 7.5 7.6 7.6 7.8 8.4 8.1 7.7 7.1 7.3 7.5 7.4 6.9 6.9 6.7 5.8 5.8 5.7 5.5 6.7 7.4 7.8 8.0 8.1 7.9 8.0 7.9 7.6 7.4 7.7 8.0 8.0 8.1 8.6 8.8 8.9 8.6 8.2 7.9 7.7 7.8
6.0 5.9 6.5 7.7 7.9 8.0 7.8 8.3 8.4 7.9 7.1 6.8 7.5 8.0 7.8 7.1 7.1 6.7 5.9 5.9 5.6 5.9 6.5 7.3 7.7 7.7 7.7 7.7 7.5 7.5 7.7 7.4 7.7 7.7 7.8 8.0 8.3 8.6 8.6 8.5 8.2 8.2 7.8 7.6
6.1 6.0 6.0 6.7 7.6 7.5 8.1 8.0 7.3 7.5 8.1 7.0 6.4 7.3 7.9 7.7 7.1 6.5 6.2 5.7 5.9 6.5 6.6 7.0 7.0 7.5 7.2 7.1 7.1 7.0 7.4 6.8 7.0 6.8 7.2 7.8 8.2 8.2 8.5 8.3 8.2 8.1 7.7 7.5
6.2 6.1 5.5 5.4 6.7 7.8 8.1 7.2 7.2 7.1 7.1 7.2 7.4 7.0 7.6 7.4 7.2 6.9 6.5 6.0 6.0 6.4 6.3 6.5 6.7 7.0 7.1 6.9 6.7 6.5 6.3 6.2 5.5 6.2 6.3 7.4 7.8 8.0 8.2 8.2 7.9 7.9 7.6 7.5
6.2 6.2 5.8 6.0 6.9 7.2 7.6 6.8 6.4 6.4 6.8 7.0 7.1 7.2 7.8 7.1 7.0 6.9 6.5 6.3 6.2 6.3 6.1 6.2 6.5 6.7 6.7 6.9 6.4 6.2 5.7 5.3 6.0 5.9 6.1 6.6 7.6 7.8 7.8 7.9 7.8 7.8 7.8 7.6
6.1 6.2 6.5 6.3 6.3 6.4 6.4 6.3 6.5 6.3 6.4 6.6 6.5 6.5 6.9 6.7 7.0 6.8 6.7 6.7 6.4 6.7 6.4 6.1 6.1 6.1 6.3 6.4 6.3 6.4 6.5 6.3 6.4 5.6 6.2 6.6 7.2 7.5 7.6 7.9 7.9 7.9 7.6 7.4
6.3 6.5 6.5 7.0 7.4 7.1 6.6 6.7 7.0 6.8 6.5 6.4 6.5 6.5 6.1 6.6 6.7 6.6 6.9 7.0 6.8 6.6 6.4 6.2 6.1 6.2 5.8 5.5 5.8 6.2 6.2 6.5 6.3 6.4 5.9 6.5 6.7 7.0 7.2 7.4 7.4 7.5 7.6 7.1
6.9 6.8 7.0 7.4 8.1 8.1 6.9 6.9 7.2 7.2 7.4 6.9 6.5 6.9 6.4 6.3 6.1 6.2 6.9 6.7 6.8 6.2 6.1 6.2 6.0 6.1 6.1 5.8 5.4 5.8 6.0 6.4 6.2 6.4 6.2 6.6 6.7 6.7 6.9 6.9 7.0 7.0 7.2 7.1
6.8 6.9 7.2 6.9 7.7 7.8 7.9 8.2 8.1 8.1 7.5 7.0 6.6 6.6 6.4 6.8 6.4 6.1 6.1 6.6 6.5 6.2 6.3 6.1 5.9 5.9 5.9 5.9 5.7 5.9 5.9 6.3 6.4 6.4 6.6 6.2 6.6 6.6 6.4 6.8 6.9 7.0 7.0 7.1
7.2 7.0 6.9 7.0 7.5 7.3 8.3 7.8 7.7 7.2 7.4 6.7 6.7 6.2 6.2 6.8 7.3 6.5 6.1 5.8 5.7 6.0 6.0 5.9 6.0 5.6 5.5 5.4 5.7 6.1 6.3 6.4 6.4 6.7 6.6 6.4 6.4 6.5 6.5 6.1 6.1 6.4 6.7 6.9
7.7 7.3 6.8 7.0 7.6 7.7 8.2 7.3 6.8 6.7 6.2 6.2 6.3 6.0 6.6 6.7 6.8 6.6 6.3 5.8 5.6 5.7 5.9 5.8 5.7 5.7 5.4 5.2 5.0 5.3 5.9 6.3 6.3 6.6 6.6 6.4 6.3 6.1 5.9 6.1 6.3 6.1 5.8 5.8
7.7 7.6 7.1 7.1 7.4 7.0 7.5 7.1 6.7 6.3 6.0 5.7 5.9 6.3 6.8 6.9 6.6 6.4 6.6 6.5 5.6 5.7 5.4 5.4 5.3 5.4 5.4 5.1 5.1 4.9 5.0 5.3 5.8 5.8 6.2 6.4 6.2 6.1 5.7 5.9 6.0 6.1 5.8 5.3
7.6 7.2 7.1 6.9 7.0 7.0 6.8 6.8 7.1 6.4 5.6 5.6 6.4 6.8 6.7 6.7 6.0 5.7 5.8 5.3 5.6 5.7 5.5 5.4 5.2 5.2 5.1 5.1 4.8 4.5 4.6 4.8 5.0 5.1 5.2 5.5 5.5 5.3 5.5 5.5 5.1 5.8 5.7 5.7
7.2 7.1 7.0 7.0 7.0 7.0 6.6 6.3 5.7 5.5 5.9 5.8 6.9 6.4 6.5 6.4 5.7 5.3 5.2 5.3 5.7 5.6 5.4 5.3 5.0 4.7 4.7 4.7 4.6 4.5 4.4 4.6 4.6 4.6 4.3 4.8 4.9 5.0 4.6 5.1 4.8 4.6 4.5 4.2
6.8 6.7 6.8 6.6 6.6 6.4 6.3 6.1 5.9 5.7 5.6 5.9 6.3 6.6 6.6 6.4 6.1 5.9 5.8 5.6 5.4 5.4 5.3 5.1 4.9 4.6 4.8 4.9 4.7 4.6 4.5 4.5 4.5 4.4 4.3 4.4 4.3 4.1 4.4 4.4 4.8 4.4 4.5 4.4
6.9 7.0 6.8 6.4 6.2 6.2 6.3 5.9 5.8 5.8 5.7 6.2 6.3 6.3 6.3 6.1 6.0 6.0 5.8 5.6 5.4 5.4 5.3 5.0 4.9 4.8 4.7 4.9 4.9 4.7 4.6 4.6 4.6 4.6 4.5 4.5 4.4 4.1 3.9 4.2 4.3 3.8 4.1 3.9
7.1 6.9 6.7 6.5 6.2 6.4 6.2 6.1 6.0 6.0 6.1 6.2 6.3 6.2 6.1 6.1 6.0 5.9 5.8 5.6 5.4 5.2 5.1 4.9 4.8 4.8 5.0 5.0 5.1 4.8 4.7 4.5 4.4 4.4 4.4 4.4 4.5 4.4 4.3 4.2 4.3 4.2 4.2 4.1
6.9 6.8 6.7 6.4 6.5 6.4 6.3 6.3 6.3 6.2 6.2 6.1 6.1 6.2 6.1 6.0 6.0 6.0 5.9 5.7 5.8 5.6 5.1 4.8 4.8 5.0 5.1 5.0 4.9 5.0 4.9 4.8 4.9 4.9 4.8 4.7 4.7 4.6 4.5 4.4 4.3 4.3 4.3 4.1
Wind_Speed
3 3 8 10 9 6 8 9 14 15 11 5 8 13 17 13 10 14 13 16 16 18 15 11 12 10 13 13 14 18 17 15 13 11 10 8 9 6 5 3 6 8 9 12
1 10 14 11 10 10 10 13 17 16 13 6 15 21 20 12 10 16 18 16 18 21 19 19 11 9 9 10 14 19 20 20 17 13 10 6 9 4 5 4 4 5 6 7
9 11 11 13 13 11 10 9 6 11 8 7 5 17 16 7 8 12 15 8 13 16 21 21 17 10 10 9 14 19 21 21 16 15 8 6 5 4 3 5 3 4 7 7
8 14 14 13 9 14 12 8 7 7 5 10 4 11 7 8 16 17 12 10 12 18 23 12 9 10 10 9 16 21 21 21 16 18 12 17 13 11 5 7 3 4 6 6
7 4 4 5 4 4 7 6 5 5 5 6 16 5 4 9 10 19 20 15 15 16 17 18 16 13 11 4 14 18 20 19 18 18 14 12 11 5 6 5 7 5 5 6
8 4 4 6 6 5 1 2 4 3 1 9 18 7 2 2 6 16 18 19 15 17 18 18 16 14 14 12 4 13 19 18 17 15 16 15 14 11 9 8 7 6 5 5
5 6 4 5 8 3 4 5 3 4 0 6 4 4 5 4 12 11 13 15 16 16 16 18 19 18 15 13 9 9 14 16 17 16 15 15 14 13 14 11 7 7 7 5
2 5 5 9 4 10 8 8 5 6 4 10 8 6 2 5 8 10 8 9 17 22 16 16 16 15 15 17 6 13 10 8 14 15 14 13 12 8 8 9 8 7 6 6
4 4 11 6 8 2 4 5 9 5 7 6 4 2 2 5 5 5 9 11 12 13 16 16 17 17 17 17 15 4 16 17 14 15 14 12 11 11 9 9 9 6 5 4
4 5 3 8 7 6 5 1 1 2 3 5 4 4 2 6 8 9 7 9 9 10 14 16 16 17 16 15 14 11 5 8 12 14 13 11 11 12 10 9 9 8 6 7
4 1 3 6 5 7 9 6 5 4 4 4 4 4 4 7 6 6 5 9 11 14 14 14 15 15 15 15 15 10 13 8 4 4 9 10 9 10 11 9 8 8 8 7
3 3 4 4 11 13 9 5 3 3 5 4 4 9 6 8 5 9 9 9 8 10 12 13 14 14 14 16 16 17 15 12 7 2 8 9 11 9 9 8 8 8 8 7
1 3 4 10 4 6 5 7 9 9 8 4 3 5 4 4 10 10 9 9 10 11 12 14 15 16 16 16 16 15 12 11 9 1 8 11 9 7 6 8 8 7 7 5
1 3 4 4 9 9 14 15 10 5 4 8 9 12 11 10 9 7 9 7 9 11 13 13 13 14 14 14 14 15 14 13 11 7 8 11 11 9 8 10 10 9 8 8
3 2 1 6 11 14 16 15 15 13 13 8 10 16 8 7 10 9 9 9 12 15 16 15 14 12 13 13 13 13 13 14 13 10 7 10 10 10 10 11 10 10 10 9
4 3 3 14 12 14 16 16 17 15 15 15 17 11 4 12 11 11 10 10 12 13 14 14 14 15 15 14 12 12 13 14 13 12 12 10 10 10 10 11 11 12 11 9
5 3 2 8 6 12 11 9 15 13 7 9 10 3 8 7 13 12 10 11 11 12 12 13 13 13 12 13 13 12 11 12 15 14 13 13 13 12 10 11 12 13 12 10
5 6 4 4 7 4 1 16 10 11 8 3 10 5 9 11 12 10 11 9 10 10 9 9 9 10 11 12 14 11 11 12 12 13 14 14 14 13 12 13 13 12 11 11
14 6 3 2 3 11 8 7 5 2 6 7 8 3 9 12 10 11 9 9 8 8 7 8 8 9 9 12 12 12 12 12 13 12 12 13 12 13 13 14 13 10 11 11
5 10 6 2 3 3 3 12 11 3 3 7 5 4 0 10 1 2 6 7 7 8 7 8 9 10 13 12 10 11 13 13 13 12 11 11 12 10 14 12 12 11 12 12
3 4 7 5 4 3 12 18 11 3 3 7 8 11 8 5 5 5 4 6 7 8 9 8 9 10 10 10 10 12 11 13 11 12 11 12 12 12 11 12 9 11 11 12
2 3 3 4 1 2 18 6 6 4 7 9 11 10 13 11 10 8 8 7 8 9 11 12 11 11 11 10 9 11 11 9 10 11 11 13 12 11 9 11 10 9 10 9
4 5 2 5 3 4 4 6 8 8 9 9 10 8 9 9 7 8 8 9 9 9 9 9 9 10 11 12 9 9 9 8 9 10 11 11 12 11 10 11 10 6 8 7
7 9 2 2 4 8 9 7 10 9 10 11 10 9 9 9 7 8 7 8 8 9 9 9 10 11 11 11 12 10 10 9 9 10 10 9 11 10 10 8 7 6 6 6
3 7 6 3 6 6 9 9 7 9 10 12 12 11 9 9 8 8 8 8 8 8 9 9 9 9 10 11 11 11 6 7 8 8 8 8 8 10 10 10 8 8 9 8
4 3 3 1 6 4 4 6 8 8 10 8 11 12 10 10 8 6 7 7 8 8 8 8 9 10 10 11 11 11 10 8 7 7 6 6 6 6 7 8 9 21 19 19
Wind_Direction
187 146 223 227 211 221 237 273 273 275 274 253 257 273 284 283 286 289 289 290 284 277 265 247 246 240 237 232 175 173 168 171 158 166 164 164 170 170 157 158 169 178 177 173
39 223 229 230 232 226 235 254 268 281 270 256 293 284 282 271 260 268 275 282 280 279 278 267 248 240 230 205 183 170 173 172 177 166 180 166 159 164 152 143 185 179 166 169
212 238 230 222 245 250 243 233 236 273 292 269 280 285 286 278 283 280 279 307 352 334 287 264 251 231 227 185 175 175 174 177 173 153 138 121 99 91 117 178 188 189 167 163
235 239 238 245 231 234 252 253 287 280 309 293 122 289 302 287 296 295 291 19 1 357 356 350 355 349 322 206 184 179 176 172 167 154 156 163 169 164 175 183 159 172 165 167
240 291 282 277 231 213 245 211 258 289 270 320 284 248 303 347 3 8 3 0 346 14 351 349 346 342 335 266 183 180 172 168 163 160 162 161 155 146 143 146 168 178 173 166
238 222 216 241 271 239 296 22 338 279 217 277 279 207 353 45 358 4 346 343 347 16 349 345 343 351 351 351 198 176 171 169 158 161 163 159 155 153 151 159 174 185 192 187
303 270 261 239 265 251 181 75 325 320 341 237 317 331 266 318 323 332 334 329 343 9 349 343 347 359 350 337 309 180 180 160 166 163 162 157 158 155 155 162 171 174 188 189
280 327 18 353 254 213 187 161 169 243 241 287 311 264 1 340 317 301 311 1 1 348 352 344 338 358 351 341 271 166 184 171 162 159 160 157 156 155 148 158 163 185 185 166
0 262 324 42 340 210 212 152 215 253 269 286 246 106 183 338 323 25 342 26 16 337 337 339 347 1 355 353 356 234 171 178 166 163 157 158 155 145 153 156 160 172 162 155
352 297 339 311 325 23 354 49 290 356 279 250 257 269 236 322 324 348 358 10 9 352 353 352 357 355 355 352 350 9 21 180 168 158 159 159 159 149 155 149 160 164 141 155
2 169 305 9 15 358 345 335 333 281 174 245 288 256 214 241 240 287 48 26 11 7 359 356 357 358 355 358 3 359 24 57 92 172 147 137 142 142 143 152 158 154 153 164
346 273 287 271 288 277 277 346 32 278 327 299 260 269 199 237 350 76 40 26 18 17 8 1 3 3 5 5 2 11 23 7 57 273 143 131 122 129 145 147 141 143 165 171
350 349 334 324 338 18 62 358 341 306 252 226 259 287 216 99 80 62 43 19 18 18 15 11 9 12 6 8 5 9 17 9 349 309 141 116 102 113 115 119 127 136 144 148
109 194 193 244 278 290 298 303 300 299 287 319 286 301 318 130 109 71 61 36 18 18 20 21 15 12 8 7 9 7 3 6 360 2 100 96 92 94 88 78 74 74 81 83
87 242 181 282 280 282 276 281 276 260 265 258 302 305 1 109 95 71 55 42 25 17 19 19 16 12 10 9 12 11 12 9 12 25 38 75 89 87 87 85 80 74 68 69
359 213 348 297 290 273 270 281 258 259 262 265 279 261 57 49 58 53 36 38 36 23 15 12 16 14 10 5 5 15 13 18 25 29 36 41 66 72 77 85 85 80 70 64
184 177 123 270 292 311 279 246 229 243 287 274 246 122 156 104 63 27 24 34 37 29 18 10 14 21 15 3 359 8 17 27 33 39 36 43 50 58 59 80 83 80 76 67
192 162 180 286 311 255 31 26 47 57 36 13 79 89 96 95 84 56 30 30 34 32 22 15 9 18 19 17 6 7 15 35 40 39 42 44 50 52 56 62 65 72 75 73
203 169 227 226 227 297 305 36 25 317 58 15 56 63 118 127 106 55 36 38 33 28 25 23 12 20 28 29 16 19 22 28 40 38 38 51 61 57 55 58 64 56 68 66
173 191 173 192 271 272 337 334 336 190 111 12 49 2 239 168 129 46 36 44 39 41 27 34 23 34 35 25 26 32 33 31 34 29 36 46 59 66 73 62 61 68 66 67
80 126 206 215 237 281 355 328 315 157 80 58 67 40 61 82 71 104 89 67 55 44 45 35 39 35 31 29 31 39 35 35 31 29 34 45 48 53 66 76 63 72 71 77
44 271 187 207 178 270 0 357 41 37 75 79 77 84 92 89 86 70 57 61 63 55 41 36 41 28 21 32 36 42 40 30 35 43 41 40 42 48 45 64 66 51 74 70
40 350 25 28 72 35 15 39 39 36 76 87 93 84 93 92 66 53 52 42 38 50 52 46 45 39 27 24 36 46 42 38 43 48 46 50 51 50 45 54 59 60 59 65
357 10 41 145 50 52 38 60 47 56 77 77 82 92 88 90 78 64 50 44 47 42 42 38 41 39 30 24 31 49 49 48 49 50 48 51 61 57 52 54 54 53 53 67
341 323 345 87 135 123 57 33 64 72 68 76 74 83 81 78 62 72 64 51 48 52 46 38 36 39 31 26 30 28 47 71 63 60 60 58 59 64 67 61 56 67 60 63
346 349 347 18 336 95 64 61 46 70 86 89 90 87 81 87 77 61 67 65 60 55 49 46 40 39 29 28 25 23 26 40 56 76 68 68 70 67 73 76 73 68 77 78